Flag for India Weather past 2 weeks in Ganganagar, Rajasthan, India

Now
104 °F

Passing clouds.


Feels Like: 100 °F
Forecast: 81 / 107 °F
Wind: 3 mph from East

Location: Lahore Airport

Current Time: Apr 25, 2015 at 2:45:35 PM

Latest Report: Apr 25, 2015 at 2:25 PM


Visibility: 6 mi

Pressure: 29.68 "Hg

Humidity: 13%

Dew point: 45 °F

Location of GanganagarLocation

Historic Weather in Ganganagar — Graph

°F

Ganganagar temperature yesterday

Maximum temperature yesterday: 104 °F (at 3:25 PM)
Minimum temperature yesterday: 77 °F (at 4:30 AM)
Average temperature yesterday: 91 °F

Past Weeks' High & Low Weather Summary

 TemperatureHumidityPressure
High104 °F (Apr 24, 3:25 PM)88% (Apr 16, 4:31 AM)30.12 "Hg (Apr 16, 4:31 AM)
Low66 °F (Apr 17, 4:25 AM)12% (Apr 21, 4:25 PM)29.56 "Hg (Apr 19, 6:25 PM)
Average84 °F45%29.80 "Hg
* Reported Apr 10 12:55 PM — Apr 25 1:25 PM, Ganganagar, Weather by CustomWeather, © 2015

Note: Actual official high and low records may vary slightly from our data, if they occured in-between our weather recording intervals... More about our weather records

Advertising

Ganganagar weather history for previous 24 hours

 ConditionsComfort  
Time TempWeatherWind HumidityBarometerVisibility
1:25 PM
Sat, Apr 25
102 °FClear.No wind16%29.71 "Hg6 mi
12:55 PM100 °FClear.3 mph18%29.71 "Hg5 mi
12:25 PM99 °FClear.3 mph21%29.74 "Hg5 mi
12:00 PM99 °FClear.5 mph22%29.74 "Hg5 mi
11:25 AM99 °FClear.3 mph22%29.74 "Hg5 mi
10:55 AM95 °FClear.3 mph25%29.74 "Hg4 mi
10:25 AM93 °FClear.3 mph26%29.74 "Hg4 mi
9:55 AM90 °FClear.5 mph31%29.74 "Hg4 mi
8:55 AM82 °FHaze.7 mph45%29.74 "Hg2 mi
8:25 AM81 °FClear.7 mph51%29.74 "Hg2 mi
7:55 AM77 °FClear.7 mph54%29.74 "Hg2 mi
7:25 AM77 °FClear.3 mph54%29.71 "Hg2 mi
5:25 AM75 °FClear.5 mph61%29.68 "Hg2 mi
4:55 AM77 °FClear.No wind54%29.68 "Hg2 mi
4:25 AM77 °FClear.No wind54%29.68 "Hg2 mi
3:55 AM79 °FClear.No wind51%29.65 "Hg2 mi
3:25 AM79 °FClear.3 mph51%29.68 "Hg2 mi
2:55 AM79 °FClear.No wind51%29.68 "Hg2 mi
2:25 AM81 °FHaze.3 mph48%29.68 "Hg2 mi
1:55 AM82 °FHaze.3 mph42%29.68 "Hg2 mi
1:25 AM82 °FHaze.6 mph42%29.68 "Hg2 mi
12:55 AM84 °FHaze.5 mph37%29.68 "Hg2 mi
12:25 AM86 °FHaze.5 mph31%29.68 "Hg2 mi
11:55 PM
Fri, Apr 24
86 °FHaze.5 mph31%29.68 "Hg2 mi
11:25 PM88 °FHaze.6 mph29%29.71 "Hg2 mi
10:55 PM88 °FHaze.6 mph27%29.71 "Hg3 mi
10:25 PM90 °FHaze.3 mph26%29.71 "Hg3 mi
9:55 PM91 °FHaze.3 mph24%29.71 "Hg3 mi
9:25 PM91 °FHaze.3 mph24%29.71 "Hg3 mi
8:55 PM91 °FHaze.5 mph26%29.68 "Hg3 mi
8:25 PM93 °FHaze.6 mph24%29.68 "Hg3 mi
7:55 PM95 °FHaze.6 mph23%29.68 "Hg3 mi
7:25 PM95 °FHaze.8 mph22%29.65 "Hg3 mi
6:55 PM97 °FHaze.8 mph19%29.65 "Hg3 mi
6:25 PM99 °FPassing clouds.3 mph18%29.65 "Hg4 mi
5:55 PM99 °FPassing clouds.3 mph19%29.65 "Hg4 mi
5:25 PM100 °FPassing clouds.5 mph15%29.65 "Hg4 mi
4:55 PM100 °FPassing clouds.7 mph15%29.65 "Hg5 mi
4:25 PM102 °FPassing clouds.6 mph14%29.65 "Hg5 mi
3:55 PM104 °FPassing clouds.3 mph13%29.65 "Hg5 mi
3:25 PM104 °FPassing clouds.6 mph13%29.68 "Hg5 mi
2:55 PM102 °FClear.3 mph15%29.68 "Hg5 mi
2:25 PM102 °FClear.No wind15%29.71 "Hg5 mi
Weather by CustomWeather, © 2015

See weather overviewHow to use our weather pages